Wind_Gust
14 13 14 14 14 14 13 13 14 13 13 13 13 12 10 10 8 7 8 11 11 11 12 13 13 14 15 14 13 13 13 13 12 11 11 11 12 12 13 15 15 16 16 18 17 16 18 18 19 20 20 19 19 19 22 23 21 19 19 20 22 21 22 23 26 29 27 18 23 27 26 26 29 21 26 26 27 27 22 22 23 23 23 23 23
14 11 12 13 12 12 12 12 13 14 14 13 12 11 10 9 8 10 12 12 13 15 14 13 14 15 14 14 14 15 15 15 13 11 11 11 11 12 13 14 15 15 15 17 18 17 17 18 20 19 18 19 18 23 23 24 24 25 25 25 24 23 22 25 24 26 32 30 29 24 27 23 29 25 26 28 27 26 28 27 23 21 21 23 23
16 13 14 13 12 12 13 13 13 12 13 12 11 12 11 10 10 12 13 13 14 15 15 17 15 14 14 15 16 16 16 14 12 13 11 11 13 12 13 13 14 15 16 17 17 16 17 16 18 17 17 17 18 19 19 22 24 25 25 25 23 24 23 22 26 27 28 32 29 31 29 27 27 29 27 26 26 27 27 26 26 25 25 23 23
15 15 14 15 14 13 13 13 12 11 11 10 11 10 11 11 12 14 14 15 17 16 17 17 15 14 15 16 17 16 16 14 13 14 15 11 13 13 13 14 15 16 16 16 16 17 15 16 17 18 18 18 20 21 24 24 25 25 25 25 24 24 24 22 22 24 27 31 28 31 31 29 29 26 27 27 29 28 27 28 25 25 25 24 21
16 16 14 14 14 14 13 14 12 12 11 11 11 11 11 12 11 12 12 13 13 15 16 15 14 15 17 17 17 17 16 16 14 14 16 13 12 13 14 14 14 15 17 17 16 16 17 16 17 19 19 20 19 23 25 24 25 25 24 24 24 26 26 27 26 23 27 30 32 27 25 28 25 26 24 29 28 28 27 28 27 25 23 22 24
17 17 17 17 16 16 14 13 13 12 12 12 12 12 13 12 12 12 13 15 15 15 16 15 15 15 17 17 17 16 17 16 16 16 16 17 16 12 13 14 13 15 16 17 17 17 18 17 17 17 18 20 22 22 22 23 25 26 24 24 24 23 25 26 26 25 22 27 24 36 23 31 31 28 28 28 30 33 30 29 25 22 24 27 25
18 17 16 16 18 16 15 13 12 11 11 11 12 13 13 12 13 14 13 14 15 15 15 15 13 15 16 17 17 16 16 16 15 15 16 16 15 12 14 12 13 13 15 16 16 17 16 15 15 16 18 20 20 21 21 23 26 25 23 23 21 22 24 24 25 24 22 26 28 26 32 26 27 32 29 29 27 27 30 34 33 28 25 25 28
18 19 16 16 16 16 13 13 12 12 11 12 12 12 12 12 12 12 13 15 15 15 15 15 13 14 16 16 16 15 14 15 15 15 14 13 13 12 13 12 13 12 12 14 15 15 14 14 13 17 18 18 20 20 18 20 21 24 22 21 22 22 22 23 24 24 27 29 29 32 30 33 30 24 28 28 30 29 24 26 34 31 32 30 25
18 17 17 17 15 14 14 13 13 13 13 13 14 14 13 13 13 13 14 16 17 16 15 14 14 15 16 16 17 14 13 13 13 14 13 13 12 12 10 13 12 13 12 13 12 13 13 13 14 17 23 26 21 22 22 18 20 21 21 21 22 22 20 23 26 24 25 26 27 26 28 28 29 32 32 29 30 32 36 30 34 27 29 32 34
18 18 19 17 15 16 15 13 15 14 13 13 12 12 12 12 14 14 15 16 16 16 14 14 15 16 16 16 14 13 12 10 14 13 10 10 10 11 7 11 10 10 11 12 12 12 14 13 16 22 20 21 22 22 20 19 19 18 18 18 20 20 21 24 24 25 24 25 27 29 29 28 29 30 30 28 31 32 30 30 30 31 29 30 31
17 17 18 17 17 16 16 15 15 14 13 13 11 12 12 13 13 12 13 15 17 16 15 14 14 16 16 15 14 13 12 15 18 16 16 15 12 11 6 8 8 11 11 11 12 14 13 13 11 16 17 18 23 23 20 19 19 20 18 15 14 24 22 20 21 22 26 25 28 27 28 29 29 29 28 31 30 27 27 28 29 30 29 30 38
18 18 17 17 17 17 16 16 15 15 13 14 14 13 13 13 13 12 13 14 15 15 15 13 14 14 15 15 15 14 13 15 17 18 18 19 13 11 6 7 10 11 11 10 12 14 14 12 11 10 16 22 22 21 22 21 22 20 19 17 17 18 19 20 22 27 25 24 25 27 27 27 29 28 28 28 29 29 29 29 28 26 29 29 30
18 18 17 18 17 16 16 16 15 14 14 14 13 13 13 13 13 13 13 13 14 14 12 12 13 13 14 15 15 16 14 15 17 18 18 18 18 13 5 10 13 12 10 11 13 13 12 14 13 13 15 21 20 19 21 21 20 19 20 19 19 22 16 17 16 19 21 22 23 25 25 26 25 27 28 30 30 29 27 28 27 27 27 29 29
18 18 17 17 16 16 16 15 15 14 13 14 14 15 14 14 12 12 12 13 15 14 13 12 12 12 13 13 13 15 15 14 17 18 17 19 18 14 5 10 12 12 10 13 10 10 11 12 12 13 12 14 15 18 20 20 20 19 21 21 21 20 16 18 17 17 20 20 22 24 26 24 27 27 29 29 28 32 31 29 28 28 28 30 28
18 17 17 16 15 16 16 16 15 15 15 16 15 15 13 13 12 11 12 12 14 15 13 11 11 11 12 12 12 13 15 16 17 19 19 20 20 14 7 10 10 10 9 10 8 10 9 11 10 10 13 13 16 17 16 20 18 18 18 18 18 17 18 19 20 19 20 21 21 22 24 23 24 27 24 22 23 26 27 29 29 28 30 31 30
18 16 17 16 17 15 16 15 15 15 16 15 14 13 12 13 14 13 12 12 12 12 10 11 11 11 11 12 11 13 16 17 18 20 21 21 19 15 12 12 9 7 9 8 7 8 6 10 10 10 13 13 15 19 14 16 16 16 16 16 15 14 18 14 15 16 20 21 21 22 23 23 23 27 28 26 24 24 28 32 23 26 29 27 29
18 17 16 16 15 15 15 16 16 15 15 15 14 13 14 13 13 12 14 13 14 13 11 10 10 10 10 11 11 12 14 16 17 19 21 21 15 15 14 14 13 11 8 7 8 6 4 9 10 13 13 14 17 19 17 12 14 17 17 18 18 16 18 19 18 19 18 18 20 22 22 22 24 27 26 30 30 28 27 29 32 31 28 29 29
18 17 16 16 15 15 15 15 15 15 14 14 13 13 12 12 13 14 15 14 14 12 11 11 10 10 9 9 10 10 11 13 16 18 19 21 17 14 12 12 13 13 9 7 7 3 6 13 13 14 16 17 17 19 20 13 13 16 18 19 21 21 20 19 19 21 19 20 20 21 21 22 23 25 29 31 32 28 30 36 32 29 27 25 31
18 18 17 15 15 14 14 14 14 14 14 13 13 14 13 13 13 14 15 14 14 12 11 10 9 9 8 7 8 9 8 9 12 14 16 17 18 12 14 13 13 15 11 8 7 10 9 9 13 16 17 20 21 20 22 17 13 15 18 19 22 23 22 19 19 25 27 27 27 27 25 24 25 25 28 29 30 28 29 28 29 30 29 27 28
18 16 16 15 14 15 14 15 13 14 13 11 11 11 11 13 14 15 14 14 14 13 11 10 9 8 7 7 8 7 8 7 8 12 12 13 15 14 12 14 13 15 13 9 10 10 11 12 13 13 19 21 21 22 22 22 15 14 15 17 20 24 22 18 19 21 22 24 25 24 24 23 25 23 25 28 28 27 29 27 27 27 28 25 25
19 19 18 17 17 16 14 14 15 13 12 12 12 11 12 13 12 13 13 13 13 12 11 10 10 8 8 6 7 5 6 7 8 10 10 10 12 11 11 11 11 12 13 10 10 11 13 13 13 14 18 21 21 22 21 21 17 15 14 17 19 23 19 19 21 17 21 22 23 24 24 23 23 23 23 26 27 27 27 26 26 25 26 28 29
19 19 18 18 16 15 14 14 12 13 12 12 12 11 8 10 11 13 13 12 12 12 10 11 11 10 9 10 8 7 5 8 8 11 12 10 9 9 9 8 10 9 13 10 10 11 11 12 13 16 20 21 21 21 21 19 19 14 21 18 21 21 23 19 16 19 21 21 22 23 25 25 27 26 25 26 27 27 26 26 26 25 23 22 26
19 18 17 17 16 15 14 12 12 12 12 11 11 11 11 13 12 12 12 10 10 9 10 11 11 10 10 11 12 11 7 9 12 10 12 12 9 10 10 8 12 11 10 8 9 12 11 13 14 18 20 20 20 21 18 18 15 18 20 21 18 20 18 19 18 20 22 22 22 25 25 25 27 28 27 27 26 26 25 25 27 26 24 22 23
19 18 17 17 17 17 17 15 13 12 12 12 10 11 12 12 11 11 10 11 11 11 10 10 10 12 12 10 11 10 9 9 11 13 12 15 12 11 12 15 13 12 10 6 10 12 13 15 17 20 19 17 18 20 16 16 20 19 18 22 18 16 18 21 18 21 21 23 24 24 26 24 24 25 26 25 25 24 23 24 27 26 25 24 23
19 18 18 18 17 18 15 15 15 13 12 12 13 13 12 12 12 9 10 8 9 9 8 8 10 11 11 11 10 9 9 9 8 12 14 15 15 15 13 14 15 16 13 9 9 13 14 19 21 19 14 11 18 17 11 14 20 17 19 20 16 18 18 21 19 20 24 24 24 23 24 24 22 22 20 20 21 23 26 25 23 23 22 20 19
20 20 21 19 18 21 19 17 15 13 10 11 12 12 13 12 13 11 10 10 10 10 8 10 11 11 11 11 11 10 9 8 9 9 9 10 10 14 13 12 13 16 13 11 14 17 19 21 21 14 11 9 15 15 11 16 16 18 17 18 15 18 17 20 20 20 24 23 24 23 23 22 23 22 19 20 23 26 25 27 26 30 28 28 27
19 19 19 19 17 18 16 15 14 12 9 10 11 10 9 7 8 7 6 8 9 8 8 8 10 10 12 12 10 10 10 9 9 8 9 9 11 11 11 11 10 10 14 13 14 18 20 20 15 11 11 11 13 13 11 12 15 17 15 16 15 18 15 19 20 19 22 22 23 22 21 20 18 21 26 24 25 25 23 24 25 26 25 26 26
21 21 20 18 18 17 15 13 14 12 9 8 10 14 15 14 14 12 11 10 12 12 12 11 10 11 11 11 10 10 9 9 8 7 7 9 9 10 10 9 9 9 11 13 17 19 19 12 11 7 10 9 12 13 12 11 12 15 15 16 15 18 15 15 14 16 18 20 20 19 21 22 23 23 25 24 24 24 23 25 25 26 26 26 31
19 20 19 19 17 15 16 13 14 16 17 17 18 13 12 14 15 13 11 8 10 15 13 11 9 7 12 11 11 9 8 7 4 4 3 2 5 8 10 10 11 13 10 10 15 18 15 11 10 11 10 9 10 15 14 14 12 15 14 15 15 18 15 19 20 21 19 21 23 22 21 21 22 21 23 26 27 26 25 24 25 25 26 26 29
20 20 19 17 18 17 14 14 16 16 16 16 17 17 15 15 10 15 9 8 13 13 10 9 10 11 11 9 8 9 7 5 6 5 4 6 7 8 9 11 11 12 12 16 9 11 11 7 10 8 9 12 11 13 13 13 13 15 15 11 13 18 15 18 19 20 19 18 21 21 21 18 21 23 21 23 25 25 26 21 27 25 28 28 28
19 19 17 18 18 15 15 15 16 15 15 15 16 16 13 16 14 13 11 9 12 15 15 11 9 9 11 8 6 7 9 7 7 4 6 8 10 12 13 14 15 17 10 14 13 9 8 11 9 9 7 11 9 11 11 12 12 11 16 14 11 15 13 16 19 18 17 15 18 19 18 20 20 21 22 21 21 24 23 22 24 26 27 26 27
21 18 18 18 17 13 15 16 16 15 15 15 16 16 16 13 9 8 8 9 9 10 10 9 10 9 9 9 8 5 4 6 5 4 7 9 11 11 13 14 16 17 16 5 6 12 6 8 7 8 7 10 10 9 12 11 11 11 15 14 14 13 15 14 16 19 18 16 18 19 20 19 20 19 19 20 17 20 22 22 24 24 24 25 26
19 18 19 19 15 15 18 17 16 16 15 16 15 15 15 14 14 9 5 7 7 7 5 5 6 7 6 5 6 6 8 7 5 7 8 10 11 11 13 15 16 17 11 9 4 10 8 6 8 7 9 7 10 9 10 10 11 10 13 12 13 14 16 12 12 16 15 16 17 19 19 18 19 18 17 18 20 19 18 19 21 20 21 22 23
18 19 20 17 16 16 17 17 16 15 15 16 16 16 14 14 14 13 12 7 3 3 4 5 5 3 5 6 5 4 6 7 9 10 11 11 11 10 9 16 19 21 10 8 6 7 4 5 6 6 7 8 8 9 9 9 11 9 12 11 11 12 16 13 16 16 13 13 14 16 19 18 18 19 19 19 20 19 18 17 17 18 18 19 19
18 17 16 12 15 17 17 16 16 16 16 16 16 16 16 15 15 15 14 14 13 12 9 10 8 9 9 7 8 9 8 9 10 10 11 12 10 9 11 14 13 12 9 8 6 5 7 4 4 6 6 7 8 9 8 8 11 10 12 11 11 13 15 13 15 17 16 13 13 15 16 17 19 19 16 17 19 22 22 18 16 15 16 14 15
20 20 14 13 15 16 16 16 16 17 16 17 17 16 16 16 16 15 14 13 13 13 12 11 11 9 14 10 10 10 12 12 11 12 12 13 9 7 8 11 12 12 9 4 4 4 7 3 4 4 5 6 7 8 8 8 9 8 10 10 10 12 12 11 13 16 16 13 12 13 13 15 15 18 18 17 17 18 20 21 17 14 14 13 11
20 18 15 13 15 16 16 16 16 18 13 16 15 15 17 17 16 16 15 15 15 15 16 12 11 8 7 10 12 12 14 12 11 10 11 13 10 3 9 10 14 13 10 7 3 4 6 5 3 3 4 6 6 7 7 7 8 7 8 9 8 11 12 9 10 12 15 16 14 15 14 16 14 14 15 16 17 18 19 19 19 17 14 16 12
19 17 14 13 15 17 15 16 18 16 17 15 14 17 18 18 17 17 18 15 15 15 16 16 10 14 15 15 13 12 12 9 8 9 11 10 11 9 10 12 13 13 13 8 2 3 3 4 3 3 3 4 5 5 7 5 7 8 7 9 6 8 10 11 8 12 12 13 14 15 15 17 17 13 13 13 13 15 18 18 18 19 18 16 13
17 13 12 13 12 15 14 16 16 16 14 14 16 18 18 17 16 14 15 14 15 15 15 16 17 14 15 12 11 10 8 7 8 11 12 11 11 13 12 12 12 12 12 7 2 2 3 4 3 3 2 3 4 4 8 7 5 7 6 6 6 9 11 10 10 11 11 12 14 14 14 14 15 14 14 14 13 12 14 16 16 16 15 18 15
19 14 12 14 12 13 14 13 14 13 11 13 12 14 15 14 13 13 14 14 15 16 15 16 16 16 16 17 11 11 12 13 11 13 13 13 13 14 14 13 12 11 7 5 4 5 3 2 2 3 3 2 3 4 4 5 4 5 6 6 4 6 9 7 10 10 10 11 12 13 14 13 13 12 15 15 15 12 14 15 14 14 13 13 16
17 13 8 10 12 14 14 14 12 12 11 11 12 13 11 11 10 9 10 12 12 10 14 15 16 15 16 18 15 16 16 15 15 12 13 12 12 13 13 13 12 8 8 6 7 4 6 5 4 3 4 2 3 3 4 4 4 4 6 7 4 4 5 5 6 9 10 9 11 12 13 13 12 12 14 15 12 12 13 14 14 15 13 11 11
16 13 14 12 16 15 14 12 11 12 10 9 10 13 9 10 12 8 9 11 12 12 9 10 10 11 15 21 18 20 16 13 12 12 11 9 8 9 8 10 9 10 8 9 8 8 7 6 6 5 3 3 3 4 4 5 5 6 7 6 6 5 5 4 5 6 7 10 9 11 11 12 12 10 11 9 13 13 14 14 13 14 15 14 12
15 15 14 13 15 15 15 13 12 12 11 11 10 7 12 12 10 8 8 9 11 12 10 10 5 9 13 13 18 18 13 11 8 9 9 9 10 9 9 9 11 11 11 11 9 9 10 8 9 8 8 8 8 6 5 8 6 8 7 7 9 9 8 8 5 5 5 7 8 9 10 10 12 11 10 10 11 11 12 12 13 13 14 13 13
18 16 14 12 14 15 14 13 13 12 12 12 12 9 13 13 13 10 10 9 8 9 9 8 8 9 10 6 6 8 9 10 10 10 10 11 12 12 14 14 10 10 10 9 8 12 10 9 11 10 8 9 9 7 9 9 9 8 9 8 8 9 10 8 9 8 6 5 6 8 9 10 11 10 9 9 9 10 11 11 11 13 13 13 14
18 17 15 14 13 14 15 12 14 15 12 11 11 9 10 12 11 10 10 10 12 11 9 10 9 11 12 11 10 11 11 11 11 11 11 12 13 13 14 13 12 12 10 8 8 9 10 10 11 10 10 11 8 11 10 11 10 11 9 9 10 10 12 12 12 11 9 6 6 6 9 9 11 11 9 9 8 8 10 9 9 9 12 13 13
19 16 16 15 13 11 13 13 11 14 11 12 10 8 7 9 8 8 9 9 11 11 11 12 11 12 13 14 13 12 13 12 12 13 13 12 12 13 12 13 13 12 11 11 11 10 12 12 12 12 13 12 12 12 12 12 12 11 10 10 11 12 12 12 10 9 9 7 9 7 6 8 10 9 8 10 10 9 8 8 6 8 8 10 12
18 18 18 16 16 14 13 12 12 13 12 11 10 11 9 10 9 8 6 7 9 11 13 13 11 10 10 14 15 15 15 15 15 15 14 14 14 15 14 12 8 9 11 11 10 13 13 13 13 14 14 14 12 13 14 13 13 13 12 12 12 12 11 10 11 11 12 11 10 9 7 9 10 10 9 7 8 10 8 9 7 7 8 10 11
17 17 18 14 17 14 14 12 14 10 11 13 13 12 11 12 12 11 11 10 10 7 9 11 12 12 11 13 13 14 14 15 15 15 15 14 14 14 12 11 11 13 12 12 11 12 13 13 13 13 14 13 12 14 14 13 12 12 13 13 12 13 14 10 9 12 11 11 10 10 9 9 9 8 7 6 7 9 8 10 9 7 8 10 11
17 17 17 15 16 16 13 13 12 13 12 12 13 13 13 12 12 13 13 13 13 12 12 11 11 11 11 11 11 13 14 13 14 15 15 15 13 12 12 13 12 12 13 14 13 12 13 13 12 13 13 14 14 14 13 13 14 14 14 13 15 16 16 14 10 13 13 13 11 11 9 9 9 9 9 7 8 8 9 8 8 9 9 9 12
18 16 16 14 16 16 13 14 14 15 12 11 14 13 13 12 12 12 13 12 12 12 13 13 13 13 13 13 12 12 13 14 14 13 13 11 12 12 12 13 14 11 9 10 11 11 12 12 13 13 14 13 13 13 13 14 15 15 14 16 16 17 16 17 15 15 15 12 14 13 13 12 11 11 11 10 9 9 9 10 10 10 8 9 10
12 17 15 16 16 16 14 14 13 15 14 12 11 13 13 12 12 10 9 9 8 9 11 12 13 12 12 13 12 13 13 13 14 13 13 12 11 11 12 11 8 10 11 11 11 11 12 12 13 13 13 13 14 14 14 14 14 15 16 18 19 18 18 17 17 14 17 13 12 12 12 14 12 13 12 12 10 11 13 12 12 10 10 10 10
Wind_Speed
5 7 7 7 6 6 8 8 9 8 9 8 8 7 6 5 4 4 5 6 6 7 7 8 8 9 9 8 7 6 7 7 7 6 6 6 7 7 8 8 8 7 7 8 7 7 7 9 8 9 8 7 7 6 7 8 8 7 8 8 9 9 10 10 11 13 11 9 10 12 14 13 12 12 15 13 13 12 14 12 12 12 12 12 13
7 7 5 6 6 7 8 8 8 8 9 9 8 6 5 5 4 6 7 7 8 9 9 8 8 9 8 8 7 7 7 8 8 6 6 7 7 6 7 6 7 7 7 8 7 7 7 8 8 7 7 7 8 8 8 8 9 9 9 9 9 9 8 8 10 11 15 12 11 9 10 11 13 13 13 13 13 13 14 14 12 10 11 12 12
7 7 8 8 8 7 8 7 8 8 8 7 7 7 7 6 6 7 8 8 8 9 9 10 9 9 8 8 7 7 8 7 7 7 6 6 7 7 6 7 8 9 9 9 8 6 6 6 8 7 7 8 8 8 9 10 11 10 11 8 8 8 9 10 10 11 13 12 10 12 11 12 12 14 14 12 12 12 14 14 13 12 10 11 11
8 8 8 8 8 8 8 7 8 7 7 5 6 5 6 7 7 8 8 8 10 9 10 10 9 8 8 8 8 7 7 7 7 6 7 6 7 7 7 8 8 8 8 7 7 6 6 8 8 9 8 9 9 9 10 9 8 8 8 8 8 10 9 9 10 11 11 12 10 11 10 12 11 12 13 12 13 12 11 13 13 12 12 11 12
9 8 8 9 9 8 7 7 7 7 7 7 7 7 7 7 6 7 7 8 8 9 9 9 9 8 8 7 7 7 6 6 6 7 6 6 5 7 7 7 7 7 7 6 6 6 6 8 8 8 9 10 10 10 9 9 7 6 7 7 7 8 8 9 11 10 10 12 11 9 10 11 11 12 13 14 14 12 11 11 12 13 12 12 12
8 8 7 8 9 8 7 7 7 7 7 7 8 8 8 7 7 7 8 9 9 9 9 8 8 8 7 6 6 6 5 5 6 5 6 6 5 5 6 6 6 6 5 6 6 6 6 7 8 9 10 11 10 9 8 8 8 8 7 7 7 7 8 9 9 10 11 10 12 14 11 13 12 11 14 14 15 15 13 11 11 10 12 13 10
8 8 8 9 8 8 7 6 6 7 7 7 7 8 8 7 8 8 8 9 9 9 9 9 8 7 6 6 5 4 5 5 6 7 6 6 5 5 7 6 5 4 5 6 6 7 6 6 7 9 9 10 9 8 9 9 8 10 8 10 9 10 7 8 11 12 11 12 11 11 12 11 11 13 12 13 14 11 14 16 15 11 9 8 13
8 8 8 8 8 7 6 6 6 6 6 7 7 7 7 7 7 7 8 9 9 9 9 9 7 6 6 5 4 4 5 6 6 6 5 5 4 4 6 5 5 5 6 7 7 7 6 6 5 8 8 8 8 7 6 7 7 8 8 8 9 9 10 10 10 10 11 12 12 13 11 12 12 11 11 13 13 12 10 12 16 15 14 12 10
8 7 8 8 7 6 6 6 6 7 8 8 8 8 8 8 8 8 9 9 9 10 9 8 7 6 6 5 6 6 7 6 5 4 4 5 3 3 4 5 5 6 6 7 7 6 5 5 5 7 10 13 14 11 10 8 6 6 8 6 8 8 10 9 7 9 10 11 13 12 12 13 12 13 14 12 12 14 14 14 14 13 14 15 14
8 9 9 7 7 6 7 6 7 7 8 8 7 7 7 8 8 9 10 10 9 9 9 8 7 6 6 6 6 6 5 4 5 6 4 2 2 2 2 5 5 6 7 7 6 6 4 4 6 14 11 11 12 13 13 14 13 9 6 5 6 7 9 7 7 7 9 12 12 13 13 13 14 15 15 14 13 13 13 14 15 15 14 15 15
9 9 9 7 7 7 7 8 8 8 7 7 7 8 8 7 8 8 8 9 10 9 8 8 7 6 6 6 5 4 4 3 5 6 7 7 3 2 1 5 5 6 6 7 6 5 4 4 4 7 7 8 9 13 12 13 12 13 12 10 7 5 7 9 9 7 9 9 11 13 12 12 15 15 14 14 13 12 11 11 13 13 13 14 16
10 9 8 7 7 8 8 8 8 8 7 8 9 8 8 8 8 7 8 9 9 9 9 8 7 6 6 6 5 4 4 8 10 10 9 8 5 1 0 5 5 5 5 6 5 4 4 3 4 4 5 7 6 8 10 12 13 13 13 11 10 9 5 5 8 8 10 10 10 12 11 11 12 13 12 13 13 13 11 12 13 13 14 14 13
10 9 8 8 8 8 9 9 8 8 8 8 7 8 8 8 8 8 8 8 8 8 7 7 6 6 6 6 5 5 4 9 10 11 11 10 8 3 1 6 6 6 5 5 5 4 4 4 4 4 4 10 7 6 7 9 12 14 14 12 10 11 10 9 7 6 7 9 10 13 13 13 12 14 15 16 14 14 13 12 11 13 12 13 12
9 9 8 8 9 9 8 9 9 8 8 8 9 9 8 8 7 6 7 8 9 8 8 8 6 5 5 5 5 5 5 7 10 11 12 11 10 6 2 6 6 6 5 4 4 3 2 4 5 6 6 5 4 7 8 8 8 9 9 8 8 9 10 10 10 10 8 8 10 12 13 13 13 14 16 13 14 14 15 14 12 14 13 13 16
9 8 9 9 9 8 9 9 9 9 9 10 9 9 8 8 8 6 7 8 8 9 8 7 6 5 4 4 5 5 4 9 12 13 13 12 12 8 4 5 6 5 4 4 3 2 1 4 4 5 6 7 7 9 7 8 8 8 8 9 9 8 7 7 8 7 7 7 8 10 12 12 12 14 12 11 13 12 12 13 14 13 14 14 12
10 9 9 9 9 9 10 9 9 9 10 9 8 8 7 8 8 7 7 7 7 7 6 7 7 6 4 4 5 5 6 11 13 14 14 13 13 7 7 7 5 3 4 2 2 0 1 4 5 6 6 7 12 15 11 8 7 8 9 9 9 8 7 8 12 12 9 7 8 10 10 12 14 14 13 12 12 12 12 11 11 13 15 13 14
10 9 9 9 10 9 9 10 10 9 9 9 8 8 8 8 8 7 8 8 8 8 7 6 5 5 4 4 4 4 5 10 14 15 15 14 10 7 7 7 6 5 1 2 1 0 2 4 4 5 6 8 13 16 14 10 7 8 8 9 9 8 9 9 13 16 15 14 14 14 16 16 16 18 17 18 16 15 12 13 15 15 14 14 14
9 10 9 9 9 9 9 9 9 9 8 9 8 8 7 7 8 8 8 8 8 7 7 6 4 4 4 4 4 5 5 8 12 13 14 13 9 7 6 6 6 6 4 1 1 2 4 10 8 5 7 8 14 16 16 9 8 7 7 9 9 9 10 10 8 10 15 16 15 15 16 16 16 16 16 18 19 17 13 15 15 14 14 12 15
9 9 9 9 9 8 8 9 9 8 8 7 8 9 8 8 8 8 8 8 8 7 7 6 5 4 4 3 5 5 4 5 8 10 11 11 8 6 6 6 6 6 5 4 4 4 5 6 11 10 8 12 16 15 16 10 7 6 6 6 9 10 11 11 10 11 12 12 12 11 11 13 12 11 13 18 19 19 14 14 13 14 15 13 14
7 7 8 8 8 8 8 9 8 8 8 7 7 7 6 7 8 9 8 8 7 7 6 6 5 4 3 3 3 4 4 4 5 9 10 11 10 6 6 7 5 5 5 5 6 6 6 7 9 12 14 16 15 15 15 13 7 6 6 7 8 11 9 10 11 11 12 12 12 11 11 10 11 12 11 13 14 15 14 13 13 13 15 13 12
8 9 9 9 9 9 8 9 9 7 6 7 7 6 7 7 8 8 8 7 7 7 7 6 5 4 3 3 3 2 3 5 5 9 9 9 9 7 4 4 3 3 4 5 6 6 7 7 7 11 15 16 14 15 14 14 11 7 8 6 6 9 10 10 13 14 11 12 11 11 10 11 11 11 12 12 12 12 13 14 14 13 13 14 15
10 10 10 10 10 9 9 8 7 7 6 7 7 7 5 6 7 8 7 7 8 8 6 6 6 4 3 3 3 3 3 7 5 9 11 9 7 6 5 3 2 3 5 4 6 7 6 6 7 10 15 14 14 14 14 13 14 7 11 12 15 15 12 9 9 9 10 11 10 11 11 12 13 13 13 12 12 13 12 12 13 14 12 11 13
10 10 10 10 9 9 8 8 7 6 6 6 7 7 7 8 7 8 7 6 6 6 6 6 6 6 4 3 4 4 4 5 9 7 10 10 9 6 6 6 9 5 4 4 5 7 6 6 8 12 14 12 12 14 13 14 11 9 14 14 15 14 12 8 9 9 10 11 11 12 12 12 12 14 13 13 12 12 11 12 13 14 13 12 12
10 10 8 8 8 8 8 7 6 6 7 7 6 7 7 7 7 7 7 7 7 7 6 6 6 7 6 5 3 3 3 5 8 10 7 10 9 9 10 11 10 6 4 3 6 6 7 6 9 12 11 11 13 13 13 11 11 14 13 14 15 11 9 9 9 10 10 11 12 12 12 12 11 12 13 12 11 12 11 11 12 14 14 13 12
9 9 9 9 9 8 7 7 7 6 6 7 7 8 7 7 7 6 6 5 5 6 5 5 6 7 7 6 4 2 2 6 5 7 9 9 10 10 11 11 12 11 7 5 5 7 9 12 13 12 9 10 12 12 9 10 14 14 13 13 12 7 9 9 9 9 10 11 11 12 12 12 11 11 11 11 11 10 11 11 11 12 12 11 11
10 10 10 9 9 9 9 7 7 7 6 7 7 7 8 7 7 6 6 6 6 6 5 6 7 7 7 7 6 5 5 5 4 3 4 5 6 9 10 9 10 10 8 6 10 13 14 13 12 11 7 7 8 7 6 7 12 15 13 10 7 7 7 9 9 10 10 11 11 12 11 11 11 10 11 11 12 13 12 13 13 15 15 14 13
11 10 11 9 8 9 9 8 7 7 6 7 7 6 5 4 5 3 4 6 5 5 5 5 6 7 7 7 6 5 4 3 2 2 3 4 4 4 6 6 8 9 8 8 9 8 11 10 8 8 6 8 9 8 7 8 8 9 8 7 7 7 7 8 8 8 9 9 9 10 10 10 9 10 11 11 12 13 12 12 12 13 12 12 12
12 11 10 9 9 9 9 11 10 7 4 4 7 7 6 6 7 6 4 5 8 7 7 6 6 7 7 7 6 5 3 1 1 1 2 3 4 4 3 3 4 5 6 7 7 7 6 8 7 4 6 6 7 6 7 6 6 6 7 7 7 8 8 11 10 8 8 8 8 9 10 11 11 11 10 10 11 12 12 12 12 13 13 12 13
11 10 9 9 9 9 8 6 6 7 7 7 6 4 7 8 8 5 2 0 6 8 7 6 5 4 7 7 7 4 2 1 1 4 1 1 1 3 5 5 5 5 4 6 7 6 5 6 6 6 6 5 7 7 6 7 7 7 7 7 7 8 8 8 8 9 8 9 10 10 10 10 11 11 10 10 10 10 11 11 12 12 13 13 14
10 10 10 9 9 8 7 8 8 8 8 8 9 8 10 9 5 8 5 6 9 8 8 5 6 7 7 3 3 5 4 3 5 5 4 2 2 3 5 6 6 6 7 8 4 3 4 4 4 4 5 7 7 6 7 6 7 8 7 7 7 7 7 8 8 8 8 8 8 9 10 9 11 11 11 11 10 9 10 11 11 11 12 13 14
10 10 10 9 10 8 8 8 8 8 8 9 9 9 7 9 11 10 9 8 10 12 12 9 7 7 7 4 1 4 7 6 6 4 1 3 4 5 6 7 7 5 6 5 3 3 3 4 5 4 4 5 5 5 5 6 6 7 7 7 7 7 7 7 8 8 8 8 8 8 8 9 10 11 11 10 10 10 9 8 8 9 10 11 12
11 10 9 9 10 8 8 9 8 8 7 8 9 9 8 7 6 6 6 8 8 9 9 8 9 8 8 7 6 0 2 3 5 1 2 4 5 6 7 9 11 8 4 3 1 5 3 2 4 4 4 6 5 4 6 6 5 6 7 7 7 7 7 7 7 7 7 8 8 9 9 9 9 9 10 10 9 9 9 9 8 9 9 9 10
10 10 10 11 8 9 10 9 8 9 8 8 8 8 8 8 8 4 2 5 6 6 4 5 6 7 6 5 6 6 7 6 5 3 4 5 5 5 8 10 9 9 0 2 1 3 4 2 3 3 4 4 5 5 5 5 4 5 6 5 6 7 6 5 5 7 7 8 7 8 8 8 8 9 9 9 10 9 9 9 9 8 8 8 9
10 11 11 10 8 9 9 9 9 8 8 8 8 8 7 8 8 7 6 3 1 2 2 3 3 2 3 5 5 4 3 3 3 4 5 5 4 5 6 7 10 6 3 2 0 2 1 2 2 2 3 3 4 4 4 5 4 4 6 5 6 6 5 4 6 7 7 8 7 7 8 8 8 7 9 9 9 9 9 9 9 8 8 7 8
10 12 14 9 8 9 9 9 9 8 8 8 8 8 7 7 7 8 7 7 6 6 6 5 5 6 5 4 5 4 4 4 5 5 5 4 5 7 6 5 7 7 5 1 2 2 2 1 1 1 2 3 4 4 3 4 5 5 5 5 6 6 6 6 7 6 7 7 7 7 7 8 8 8 7 7 8 10 10 9 9 8 8 7 7
11 10 8 9 9 9 9 9 8 8 8 8 8 8 7 7 7 7 6 6 7 7 5 6 5 7 8 6 6 5 5 6 6 6 6 4 3 6 4 6 6 5 5 3 1 1 1 0 0 1 1 3 3 4 2 2 4 4 4 4 5 6 6 6 7 7 6 6 7 7 7 7 7 8 8 8 8 8 8 9 8 8 8 7 6
11 9 7 7 9 9 8 9 8 9 9 9 8 7 7 8 8 7 6 7 7 6 6 5 3 2 2 4 6 7 7 6 5 6 8 7 4 1 3 4 5 6 5 5 0 0 2 2 1 1 1 2 2 1 3 2 3 4 4 3 3 5 6 5 5 6 7 7 7 7 7 7 7 7 7 8 8 8 8 8 9 9 8 9 8
11 9 7 7 9 10 9 9 10 12 10 9 8 8 8 8 8 8 8 8 8 7 6 6 6 7 7 8 7 6 3 3 3 6 7 7 4 4 6 6 5 6 7 5 1 1 0 1 0 1 1 2 2 1 3 3 3 3 3 4 2 3 4 4 4 4 5 6 7 7 7 7 7 6 7 7 7 7 8 8 8 9 9 9 7
9 10 11 12 10 9 8 9 10 9 8 9 9 10 10 9 9 8 8 7 7 7 6 6 7 7 8 7 5 4 3 2 2 6 6 6 5 6 5 6 6 7 7 5 1 1 2 0 0 0 1 1 1 0 1 2 2 3 3 3 3 3 4 3 4 4 5 6 6 7 7 7 7 6 6 6 7 7 7 8 8 7 8 8 7
10 7 9 12 8 8 8 9 9 8 8 8 8 9 10 10 9 9 9 8 9 9 8 7 7 9 7 5 4 6 7 7 6 6 6 6 6 6 6 7 7 7 5 3 3 3 2 1 1 2 1 0 0 1 1 2 3 3 2 2 2 3 4 2 2 3 4 5 6 6 7 7 7 6 6 6 6 6 6 7 7 7 7 6 7
8 7 6 8 9 8 7 8 7 7 7 7 8 7 7 7 6 7 7 6 6 7 9 9 9 8 7 10 13 13 9 8 7 7 7 7 7 6 7 8 8 6 5 4 5 3 4 3 3 1 1 1 2 2 3 3 3 3 3 3 2 3 3 2 1 2 3 4 4 5 6 6 6 7 6 6 6 6 6 5 6 7 7 6 7
8 7 7 7 10 8 7 7 7 8 7 5 7 7 6 7 7 5 7 6 6 7 5 7 7 7 10 17 15 16 9 7 7 7 8 7 5 5 5 7 6 6 5 6 5 5 5 5 4 3 2 2 2 2 1 3 4 4 5 5 4 4 4 3 2 1 1 2 3 4 4 5 6 6 5 5 6 6 7 7 6 6 6 6 6
7 5 6 8 9 8 8 7 7 6 6 6 5 5 6 7 6 6 5 6 8 8 7 6 3 3 8 11 14 14 8 7 6 6 5 5 5 4 5 5 7 7 7 7 6 6 6 6 6 6 5 5 5 4 3 4 4 5 4 4 5 6 5 6 3 3 2 1 2 3 3 4 4 5 6 5 5 6 6 6 6 6 7 6 6
6 5 6 7 8 8 7 7 7 7 7 7 7 6 6 7 7 6 6 6 6 6 6 5 5 5 5 4 4 5 6 6 5 5 6 5 6 6 8 8 6 6 7 6 5 7 7 6 7 7 6 6 6 5 5 5 5 5 5 5 4 5 6 6 6 5 4 3 3 3 3 3 3 3 5 5 4 6 6 6 6 6 6 6 7
6 6 5 6 7 8 8 7 8 7 8 6 6 6 7 7 7 7 7 7 6 6 6 6 5 6 6 7 6 7 7 7 7 5 6 7 7 7 7 7 7 8 6 6 6 5 6 7 7 6 6 7 6 7 7 8 7 7 7 5 5 5 7 7 7 7 6 4 4 4 3 3 3 3 3 4 3 3 5 5 5 6 6 6 6
6 5 5 6 5 7 8 7 9 8 7 7 6 5 5 6 6 6 6 7 7 7 6 6 7 7 7 7 7 7 7 7 7 7 8 7 7 8 7 7 8 8 7 7 6 7 7 7 8 8 8 8 7 8 8 8 8 7 6 6 7 8 7 7 6 6 6 5 5 5 4 4 4 3 4 4 4 3 3 4 4 4 3 4 5
6 5 5 5 6 4 6 8 8 8 7 7 7 7 5 5 5 4 4 5 6 7 8 8 7 6 7 7 7 8 8 7 7 7 8 8 8 9 9 8 6 6 6 7 6 8 8 8 8 8 8 8 7 8 8 8 8 8 8 8 7 7 7 6 6 7 8 7 6 5 5 6 5 4 4 3 4 4 4 4 4 5 4 4 4
7 8 7 6 6 5 4 5 7 7 8 8 7 7 6 7 6 6 6 6 5 5 6 7 8 8 8 8 8 8 7 7 8 8 7 8 8 9 8 7 7 8 7 7 7 7 8 8 8 8 8 8 8 8 8 8 8 8 8 8 8 8 9 8 5 7 7 7 6 7 6 7 6 5 5 4 4 4 4 6 5 4 4 4 5
8 8 7 7 6 6 5 5 5 5 7 8 8 8 8 7 8 7 7 7 7 8 8 7 6 5 6 7 8 8 9 8 8 9 9 9 8 8 8 8 7 8 6 7 7 6 6 7 7 7 8 8 8 8 7 8 8 8 8 8 10 13 13 12 8 7 9 7 7 7 6 6 6 6 6 5 5 5 5 4 5 5 5 4 4
9 8 8 8 8 7 7 7 6 7 6 7 8 8 8 8 8 8 8 8 8 8 8 8 8 7 7 7 7 7 7 8 8 9 8 8 8 7 5 4 4 5 5 5 6 5 6 6 7 7 7 7 8 7 7 8 8 9 8 10 13 14 13 14 13 12 9 7 8 8 8 7 7 7 7 7 6 6 6 6 6 6 5 5 5
8 10 9 8 9 9 8 7 8 8 7 7 8 8 8 8 8 7 6 6 6 7 7 8 8 8 8 8 9 8 8 8 8 8 8 7 3 1 3 5 6 7 7 7 6 7 7 7 8 8 8 7 7 8 7 8 8 9 12 15 16 15 15 13 10 11 14 10 7 7 7 8 8 8 7 7 6 7 8 8 7 6 7 6 6
Wind_Direction
113 113 112 112 107 102 106 104 103 99 93 94 100 103 109 113 118 116 86 79 78 74 73 69 64 62 58 51 45 36 30 21 13 20 41 45 46 53 54 57 59 55 51 47 42 39 39 37 31 23 13 20 12 9 6 2 358 358 356 355 354 351 347 337 325 317 316 320 316 318 317 317 314 315 311 312 312 314 314 310 309 310 308 305 300
118 114 110 109 106 101 95 96 100 98 98 102 104 107 108 105 100 90 89 82 78 72 68 65 66 64 60 51 42 34 27 24 15 12 36 49 50 54 56 51 55 54 51 47 39 37 37 42 28 20 14 15 8 5 2 1 359 358 0 358 356 350 343 330 328 322 320 324 318 312 314 319 310 313 310 310 314 315 316 317 315 312 311 311 308
103 107 107 104 96 94 95 95 99 102 104 110 116 113 109 100 90 89 85 81 75 73 70 68 65 66 63 52 42 34 29 26 17 22 14 54 59 58 52 54 57 54 51 47 40 33 35 34 26 20 15 11 8 3 7 7 2 2 2 356 344 333 328 329 321 321 317 313 307 318 324 321 315 316 315 315 316 321 318 316 316 311 305 303 303
109 105 103 95 98 97 94 96 99 105 113 120 120 119 112 104 99 93 93 88 84 77 72 68 66 65 65 57 45 39 31 23 21 19 25 34 62 59 56 60 60 55 53 50 41 30 31 33 29 20 14 12 8 10 12 8 6 3 350 338 332 329 324 320 320 313 312 311 318 321 324 322 321 319 320 317 317 315 312 308 305 303 306 312 319
113 110 105 106 105 103 102 103 107 109 111 108 104 101 97 95 90 88 84 81 80 83 79 73 70 64 64 60 53 44 33 25 23 22 23 28 38 62 65 65 62 59 54 48 42 34 34 42 30 18 18 16 15 16 7 4 358 350 340 333 330 325 321 322 316 308 308 311 316 323 323 322 321 318 321 322 321 314 310 306 309 312 315 315 309
115 116 115 114 113 111 111 109 109 111 109 106 104 102 100 97 95 90 90 87 84 82 81 76 70 69 63 61 58 49 36 29 29 25 25 24 25 59 68 67 65 62 55 47 41 34 43 43 31 21 24 24 16 8 2 357 352 349 332 328 320 308 307 303 311 319 323 325 328 325 328 326 323 321 324 325 322 319 314 307 300 302 308 305 296
120 118 116 116 116 117 117 117 116 113 110 109 108 106 106 106 102 101 97 94 91 86 82 80 74 71 67 61 56 47 38 32 30 23 22 19 22 63 72 70 67 60 52 48 41 40 43 41 33 25 29 25 18 8 356 352 352 348 348 350 348 346 324 323 341 343 342 336 329 325 321 320 319 316 322 320 314 311 313 317 312 308 296 297 303
125 122 119 118 118 120 120 120 117 111 105 101 99 99 96 95 96 96 93 89 86 86 83 83 77 71 68 64 53 49 40 36 27 21 18 13 15 46 84 82 76 65 56 46 41 40 38 31 32 28 28 29 22 9 2 351 343 345 346 347 352 354 358 354 348 344 345 342 336 332 329 322 321 314 313 317 315 313 315 312 308 313 311 306 295
130 124 120 121 125 124 118 113 110 106 103 98 96 93 92 90 88 90 92 92 87 83 80 77 77 72 62 55 47 39 38 27 18 10 7 12 8 19 90 93 84 74 60 51 41 39 40 23 19 29 24 27 22 13 3 356 353 343 335 338 352 355 358 346 342 342 339 339 337 334 330 332 329 326 325 324 320 316 316 313 305 302 303 301 297
129 125 124 125 126 123 117 112 108 106 104 103 100 97 93 89 89 89 92 92 91 87 82 76 71 67 60 50 47 40 32 17 7 8 17 2 355 350 97 104 94 84 72 61 47 37 31 19 9 15 9 18 18 11 5 357 351 348 319 332 350 353 355 334 334 336 337 336 335 332 329 327 328 329 324 320 316 312 310 311 304 305 301 296 292
125 126 127 131 128 122 116 114 111 110 110 104 100 97 94 93 91 91 93 96 95 95 89 83 76 66 60 53 43 40 25 5 358 37 30 23 23 7 53 104 94 88 82 74 64 51 21 7 351 353 349 358 4 3 355 355 345 341 335 342 339 344 353 354 349 325 338 330 328 327 321 315 321 321 320 322 318 314 310 303 299 301 302 306 307
128 130 134 134 130 126 123 120 117 112 107 106 106 103 99 95 93 91 93 98 101 98 94 90 84 72 64 57 47 29 16 359 14 25 31 24 18 340 268 110 100 92 90 80 77 71 40 9 344 338 339 351 3 355 346 342 343 336 327 331 330 333 332 339 343 341 345 336 328 327 319 316 315 318 319 322 321 315 307 306 302 296 295 294 294
131 136 140 137 134 129 128 125 121 117 114 113 107 103 100 97 96 93 93 101 103 99 98 95 89 79 64 57 45 28 24 2 17 21 19 18 15 23 13 104 106 104 97 91 81 70 55 24 349 337 338 347 352 351 346 338 335 332 325 323 323 324 322 325 327 320 325 337 335 330 333 326 319 324 320 320 317 313 315 312 304 298 292 286 281
139 143 142 140 137 135 132 127 123 121 116 110 108 107 106 106 105 102 98 93 98 99 94 89 86 78 71 64 52 37 31 1 26 26 22 17 16 22 96 102 111 110 108 102 98 98 73 46 16 351 341 344 345 357 344 340 335 330 331 328 322 316 311 313 322 326 329 336 334 331 327 328 322 317 318 319 319 320 314 309 303 298 298 292 294
145 145 143 143 140 135 130 128 125 122 119 118 118 119 120 118 113 111 105 104 107 110 110 101 92 85 76 64 59 45 21 19 35 32 28 27 27 28 56 83 108 113 111 117 128 127 63 40 25 1 348 346 346 4 350 339 333 331 329 330 326 318 312 310 316 317 318 326 328 322 321 321 318 318 316 319 319 309 305 304 306 305 304 298 290
144 145 144 142 137 133 129 125 123 123 124 125 124 123 119 117 117 113 102 91 87 90 92 100 99 93 86 75 67 47 27 28 38 36 36 38 44 38 45 50 46 76 115 126 129 160 41 21 22 360 355 346 346 353 358 343 338 336 334 330 329 325 322 313 307 304 300 304 314 319 318 313 314 320 322 326 328 324 318 317 324 334 329 327 323
143 140 138 134 132 131 128 126 125 125 125 124 124 122 119 115 111 106 98 94 91 88 95 96 108 106 92 79 73 56 38 27 38 39 38 39 46 37 36 34 34 28 2 141 138 50 344 2 4 3 352 346 347 348 355 353 345 343 339 335 331 332 336 335 325 319 316 309 313 319 319 322 325 330 332 336 339 338 337 343 349 337 329 328 323
137 136 135 132 131 131 129 127 127 126 125 127 128 126 122 117 116 112 109 106 99 101 97 89 91 113 115 100 89 76 50 32 41 40 40 39 51 50 38 38 24 22 355 329 85 359 339 2 353 1 352 345 344 346 348 360 348 344 344 339 339 344 344 342 332 328 326 321 323 327 331 330 331 331 337 346 348 353 350 349 339 334 335 335 327
138 136 135 133 129 126 125 123 125 126 127 130 130 131 134 134 128 118 118 115 118 116 110 111 114 114 137 141 98 83 65 40 42 46 44 40 44 47 45 42 29 5 358 343 3 4 353 343 349 350 350 342 345 346 345 358 348 347 343 343 348 349 343 337 332 330 335 338 333 334 334 337 340 340 343 347 354 359 356 345 337 341 334 335 330
132 125 121 121 119 117 118 120 123 126 129 126 126 132 133 123 126 127 129 131 132 132 131 128 126 139 138 118 106 102 80 51 37 39 41 41 38 46 45 43 15 358 359 1 11 354 351 347 343 343 346 342 343 344 342 351 358 343 1 0 353 349 329 338 336 336 338 339 330 330 329 336 344 344 347 353 357 1 356 348 342 338 335 334 335
119 115 117 116 117 116 117 123 125 126 130 132 130 124 126 128 125 126 132 135 135 137 141 146 144 153 137 121 110 94 103 80 48 40 32 39 41 47 40 43 10 12 9 6 7 2 346 342 330 338 343 339 340 343 346 350 358 0 8 358 345 335 344 350 336 334 341 339 335 330 333 344 349 352 354 357 359 359 357 353 347 339 338 339 341
121 120 119 121 121 122 124 126 127 132 133 125 126 131 131 119 122 126 126 131 140 151 157 158 155 151 140 119 103 89 82 89 71 42 35 31 40 44 49 32 18 33 28 16 1 355 342 333 327 332 337 335 336 349 351 353 359 12 357 357 355 0 357 346 338 336 341 344 340 341 343 350 352 353 356 358 360 358 359 356 350 343 340 341 345
126 126 126 126 128 130 133 133 135 133 131 130 128 124 119 121 125 127 134 142 149 158 164 163 153 151 141 134 121 106 83 72 67 55 41 42 31 30 42 39 25 41 56 34 5 340 332 335 323 331 334 331 343 356 353 354 5 354 357 1 0 358 355 350 346 345 345 347 348 349 347 349 351 352 353 354 353 356 357 358 356 352 346 344 349
131 132 133 132 132 135 136 137 134 135 137 133 124 119 120 125 130 138 151 153 163 169 179 167 147 147 157 160 164 133 91 73 55 49 41 32 30 24 23 29 34 22 39 32 1 343 337 332 319 323 330 337 357 357 352 357 2 357 1 360 3 360 358 355 354 350 346 349 353 351 349 346 347 349 351 345 344 352 352 357 1 357 354 350 352
138 139 139 137 138 138 133 135 138 137 141 134 130 131 133 139 145 163 155 159 161 168 174 151 142 144 143 150 157 150 91 70 53 37 35 24 20 16 15 20 19 25 15 350 357 337 324 328 333 335 326 359 2 358 353 351 359 2 2 3 4 0 2 359 355 352 356 354 352 349 346 343 340 341 340 339 338 349 359 1 4 5 360 357 354
141 142 141 142 143 141 137 138 138 140 141 141 142 147 148 155 159 172 165 171 175 173 161 145 136 131 132 130 123 103 71 62 45 20 21 18 10 4 6 11 12 9 5 351 341 339 337 335 332 333 343 8 5 4 352 348 353 1 6 7 6 4 1 2 356 359 357 350 350 349 343 337 337 334 338 346 357 2 1 4 3 8 5 2 3
141 141 145 146 144 142 143 145 147 149 148 156 155 146 141 123 117 121 146 157 148 132 121 129 128 129 132 127 116 104 89 77 37 6 5 11 4 358 1 359 5 6 2 350 345 340 325 324 316 300 352 8 5 360 4 354 2 2 3 2 5 7 0 3 358 354 352 348 346 344 338 334 327 339 351 355 2 4 3 4 8 8 5 6 12
146 149 149 146 145 148 147 156 151 143 134 120 103 94 88 104 99 94 98 110 111 101 96 88 98 106 110 117 116 107 112 91 14 24 346 1 351 353 356 3 9 3 341 334 325 319 312 314 333 5 11 11 359 3 2 4 5 2 5 1 360 4 2 359 1 359 355 347 341 342 343 345 349 347 348 355 357 1 3 7 11 8 8 7 20
148 150 147 144 148 151 147 123 112 112 101 89 69 85 125 119 110 85 22 255 129 124 109 104 105 111 111 123 121 123 141 161 227 209 203 186 357 338 342 336 332 324 307 312 316 325 343 349 5 360 15 13 3 360 357 2 2 0 8 9 359 1 359 5 4 356 349 349 351 349 347 345 346 351 355 357 355 354 359 9 12 16 11 18 28
151 151 149 149 151 143 126 124 118 114 112 109 101 70 41 59 93 121 102 66 81 102 115 129 143 123 104 115 149 148 180 204 197 198 221 226 268 267 266 280 283 288 300 303 259 293 323 339 355 2 7 17 7 1 358 4 4 2 360 5 2 3 359 356 359 353 347 348 346 351 351 346 349 352 356 0 351 352 357 6 11 12 22 23 25
149 148 149 153 153 137 132 126 127 117 117 116 108 105 90 51 45 62 93 102 95 89 91 106 112 117 126 113 51 137 153 163 179 201 295 310 317 313 314 310 307 305 314 346 25 15 334 338 351 353 2 13 12 356 357 11 4 6 358 352 356 0 360 358 352 347 348 348 350 352 351 355 351 351 355 358 355 350 351 356 12 13 23 24 28
151 151 149 154 149 135 134 132 129 123 123 120 117 122 116 102 67 42 64 84 84 95 103 107 109 119 137 147 150 51 204 196 176 220 292 308 307 313 318 318 310 317 307 215 298 310 319 321 25 353 9 17 352 2 358 14 5 9 1 2 353 352 5 358 339 351 345 351 351 353 353 353 351 349 352 352 357 359 355 354 2 13 15 19 24
146 147 151 156 149 138 139 137 135 130 130 124 125 127 127 130 128 114 44 40 76 90 100 104 117 130 135 152 171 170 186 196 201 245 274 287 308 322 317 305 298 297 189 130 185 287 314 319 56 5 26 15 358 6 353 9 12 2 6 2 352 344 353 338 332 359 353 347 346 352 351 352 351 350 352 352 0 6 2 357 353 4 14 19 16
148 150 158 158 144 143 143 141 137 138 138 137 139 139 145 144 142 140 128 102 42 358 316 246 209 205 190 183 180 199 204 220 256 267 282 291 328 340 330 310 310 336 152 186 161 287 283 336 24 31 15 16 6 8 5 2 8 3 354 356 344 345 346 342 4 0 356 349 349 344 351 351 355 358 354 353 356 2 9 3 358 2 7 15 14
146 156 156 148 145 145 143 140 141 142 146 147 147 148 154 152 148 149 153 160 176 187 206 230 233 197 205 222 236 239 246 260 263 268 283 333 2 334 334 1 357 354 352 295 183 247 23 281 40 50 63 40 358 20 5 350 9 357 354 350 349 352 353 0 358 356 357 349 351 349 345 351 351 355 357 357 358 1 3 8 4 360 3 8 13
152 160 162 151 147 141 144 145 145 151 157 159 159 160 153 153 157 167 170 171 172 187 215 217 215 227 225 241 253 254 257 260 271 290 300 327 352 22 354 326 334 318 324 289 222 322 44 221 193 87 89 57 22 13 1 4 358 353 341 1 358 355 356 352 354 358 351 351 349 343 347 350 353 355 354 359 4 359 2 5 6 3 3 8 16
158 162 162 157 150 146 149 151 155 164 167 165 161 158 163 167 171 168 172 180 190 195 194 195 188 218 237 265 248 255 250 259 279 291 291 290 275 225 232 238 256 275 291 278 253 3 359 320 235 156 132 88 49 14 17 349 330 358 341 345 349 7 354 346 345 358 355 352 346 349 350 346 347 355 6 2 352 357 359 3 4 6 8 10 13
161 164 161 159 151 156 156 162 171 173 170 164 165 166 171 173 174 180 183 189 189 181 186 197 195 189 201 228 210 208 235 265 287 307 300 301 280 235 236 232 235 238 253 254 227 208 250 285 242 157 188 120 81 37 20 343 309 344 342 328 334 339 351 2 340 353 355 353 350 347 347 348 349 350 3 11 357 352 354 358 5 3 1 10 21
162 163 161 154 154 157 154 159 167 167 170 161 164 169 174 179 178 188 191 191 181 188 194 185 191 204 215 214 210 179 147 228 234 249 254 257 258 255 244 241 236 246 239 235 222 206 204 228 275 139 146 140 131 145 316 314 293 322 332 351 332 331 355 348 350 350 358 351 344 344 346 344 344 345 359 12 2 353 353 355 360 4 7 359 359
162 166 161 153 145 146 148 152 154 156 154 146 152 152 160 174 175 162 176 177 179 178 188 188 201 218 209 176 191 161 180 206 217 231 241 251 251 250 230 240 241 228 222 235 231 226 215 215 194 113 145 211 219 271 266 267 281 269 315 351 322 314 306 315 332 351 344 337 344 339 345 341 341 338 353 12 3 354 359 356 350 356 360 0 352
161 152 150 150 139 141 142 144 150 156 149 142 158 155 168 171 184 158 169 170 181 176 175 192 204 218 194 199 187 179 180 196 212 219 227 234 237 238 238 232 228 230 223 217 229 204 190 186 184 183 167 207 237 249 275 290 282 283 286 291 286 281 288 298 292 319 329 339 336 338 333 336 343 353 353 345 351 359 352 356 358 357 356 360 1
149 149 152 149 143 144 144 146 151 154 160 142 149 173 160 168 180 179 166 181 185 194 201 206 202 196 198 192 188 185 181 201 199 209 223 222 217 220 225 241 238 222 212 208 204 194 192 181 193 184 193 220 219 251 268 297 282 271 276 276 273 270 280 273 253 252 284 312 316 319 323 327 337 340 328 338 353 348 352 355 351 351 358 360 1
153 157 154 144 145 152 153 157 151 156 175 178 177 178 177 164 174 177 188 182 183 188 188 204 238 176 188 192 192 186 194 202 203 212 228 243 250 254 247 243 235 224 213 217 211 193 185 189 195 199 194 201 199 204 226 247 249 263 269 271 270 265 265 263 252 243 234 251 281 283 300 314 332 340 327 334 347 348 345 346 346 350 351 356 359
146 145 145 140 147 150 156 151 156 166 176 193 189 170 189 180 181 189 186 184 176 182 184 198 179 172 175 174 168 190 212 216 218 222 229 236 243 249 252 251 250 251 238 227 215 193 182 185 196 209 208 204 210 216 217 224 226 234 243 251 266 271 271 268 244 229 216 218 230 252 276 291 312 327 330 320 346 355 338 340 341 341 348 348 350
145 150 162 145 147 155 163 164 166 169 180 187 195 188 174 174 182 191 190 192 191 189 186 196 178 169 177 188 188 199 213 220 226 232 237 236 235 243 246 255 251 239 232 233 215 191 183 188 188 194 208 224 228 226 226 227 218 211 209 211 238 261 265 260 244 227 204 198 210 219 245 254 280 300 304 294 316 345 336 323 322 332 342 346 354
154 150 161 157 147 145 165 164 169 171 168 176 184 181 178 169 175 177 182 184 192 201 207 209 209 184 183 193 200 203 217 221 227 228 234 237 233 236 236 234 235 231 227 225 216 207 203 191 191 196 207 218 225 227 228 225 224 222 218 215 219 228 232 236 239 219 208 200 206 204 216 234 252 257 268 273 289 311 309 310 314 313 311 318 327
155 163 173 174 177 174 167 163 158 174 178 178 175 171 178 191 193 198 200 202 193 195 204 212 212 210 196 197 198 212 217 216 224 228 229 232 235 236 237 235 230 231 231 225 215 211 210 208 206 204 209 218 222 226 232 236 237 237 234 229 226 227 229 224 213 209 211 207 199 192 205 215 239 247 265 275 292 296 299 298 293 298 298 307 316
169 173 181 184 181 183 191 166 167 165 174 175 180 178 183 190 196 207 221 227 222 212 205 206 202 207 195 201 205 213 215 219 226 230 234 234 233 231 230 231 230 228 228 228 222 213 207 209 210 211 216 219 221 228 236 241 242 240 239 237 230 230 233 230 219 219 214 200 193 200 202 212 225 230 235 240 258 267 289 289 292 292 282 295 310
169 179 178 182 184 191 194 196 194 180 181 178 181 184 190 189 200 204 209 213 220 223 216 212 216 212 208 211 202 200 204 205 216 226 230 234 233 233 226 223 224 230 228 235 235 227 224 220 217 215 217 220 222 225 231 237 241 242 241 241 239 237 236 236 228 230 212 201 204 204 205 209 218 227 227 228 241 242 246 267 273 269 274 284 297
180 179 180 184 187 195 202 199 199 205 192 175 178 192 194 197 198 202 206 214 220 224 224 220 219 220 222 234 243 245 244 242 242 239 237 234 231 234 246 273 276 270 260 252 252 248 241 238 236 235 232 230 230 229 232 234 238 240 241 242 243 240 239 236 232 228 218 212 211 207 206 216 220 227 227 228 229 235 243 251 256 258 259 271 278
178 174 186 183 189 197 197 192 193 196 196 190 177 182 194 199 203 206 206 203 202 204 202 205 215 221 226 229 230 230 228 225 222 215 213 222 232 238 234 230 232 236 238 235 237 235 231 230 232 235 238 239 237 237 237 238 239 239 240 242 244 244 241 238 236 239 228 220 214 210 210 217 225 232 239 236 233 231 237 240 243 245 250 253 259